[[{"header":{"parameterUnit":"m.s-1","parameterCategory":2,"la1":30.2991,"la2":30.254,"lo1":-89.0895,"lo2":-89.0444,"dy":0.0017,"dx":0.0017,"nx":28,"ny":28,"refTime":"2025-08-09T21:00:00:Z","depth":"0","parameterNumber":2,"parameterNumberName":"U-component_of_CURRENTS"},"data":[0,0,0,0,0,0,0,0,0,0,0,0,0,0,0,0,0,0,0,0,0,0,0,0,0,0,0,0,0,0,0,0,0,0,0,0,0,0,0,0,0,0,0,0,0,0,0,0,0,0,0,0,0,0,0,0,0,0,-0.2664,-0.2665,0,-0.2715,-0.2716,-0.2716,-0.2682,-0.2681,-0.2679,-0.2678,-0.2647,-0.2647,-0.2648,0,0,0,0,0,0,0,0,0,0,0,0,0,-0.2547,-0.2549,-0.2664,-0.2665,-0.2666,-0.2715,-0.2716,-0.2716,-0.2682,-0.2681,-0.2679,-0.2677,-0.2647,-0.2647,-0.2648,0,0,0,0,0,0,0,0,0,0,0,0,0,-0.2595,-0.255,-0.2664,-0.2656,-0.2657,-0.2715,-0.2716,-0.2716,-0.2683,-0.2681,-0.2679,-0.2677,-0.2646,-0.2647,-0.2648,-0.2691,0,0,-0.2649,-0.265,0,0,0,0,0,0,0,0,-0.2593,-0.2599,-0.2657,-0.2657,-0.2657,-0.2693,-0.2663,-0.2705,-0.2683,-0.267,-0.2678,-0.2676,-0.2658,-0.2657,-0.2669,-0.269,-0.2688,-0.265,-0.265,-0.265,-0.265,0,0,0,0,0,0,0,-0.2589,-0.2597,-0.2681,-0.2658,-0.2658,-0.2655,-0.2659,-0.2671,-0.2671,-0.2671,-0.2669,-0.268,-0.2656,-0.2668,-0.2667,-0.2688,-0.2649,-0.265,-0.265,-0.2651,-0.2727,-0.2729,0,0,0,0,0,0,-0.2591,-0.2594,-0.268,-0.2683,-0.2622,-0.2659,-0.2663,-0.2681,-0.2672,-0.267,-0.2681,-0.2678,-0.2668,-0.2667,-0.2666,-0.2701,-0.265,-0.2651,-0.2651,-0.2726,-0.2728,-0.273,0,0,0,0,0,0,-0.2588,-0.2598,-0.2678,-0.2641,-0.2651,-0.2663,-0.2683,-0.2683,-0.2687,-0.2682,-0.2677,-0.2684,-0.2667,-0.2665,-0.2679,-0.27,-0.2651,-0.2652,-0.2724,-0.2726,-0.2729,-0.2782,0,0,0,0,0,0,-0.2585,-0.2597,-0.2607,-0.2642,-0.2654,-0.2719,-0.2685,-0.2686,-0.2698,-0.2694,-0.2683,-0.2678,-0.2665,-0.2678,-0.268,-0.27,-0.2652,-0.2722,-0.2725,-0.2728,-0.2778,-0.2786,-0.2793,0,0,0,0,0,-0.258,-0.2609,-0.2607,-0.2617,-0.2668,-0.2721,-0.2727,-0.2725,-0.27,-0.2717,-0.2704,-0.2678,-0.2699,-0.2681,-0.2682,-0.2702,-0.272,-0.2724,-0.2728,-0.2775,-0.2784,-0.2792,0,0,0,0,0,0,-0.2564,-0.2609,-0.2608,-0.2647,-0.2682,-0.2716,-0.273,-0.273,-0.2736,-0.2722,-0.2702,-0.2699,-0.272,-0.2711,-0.2691,-0.2736,-0.2705,-0.2709,-0.274,-0.2749,-0.2757,-0.2751,-0.2652,0,0,0,0,0,-0.2567,-0.2593,-0.2639,-0.2667,-0.2686,-0.2706,-0.2724,-0.273,-0.2744,-0.2743,-0.2737,-0.2732,-0.2743,-0.2742,-0.2752,-0.2778,-0.2764,-0.2793,-0.28,-0.2806,-0.2805,-0.2809,-0.2816,-0.2742,-0.2742,-0.2742,0,0,-0.2568,-0.2595,-0.2609,-0.2664,-0.2685,-0.273,-0.2711,-0.2747,-0.2775,-0.274,-0.2765,-0.2761,-0.2757,-0.2786,-0.2794,-0.2775,-0.2823,-0.2811,-0.2816,-0.2811,-0.2813,-0.282,-0.2826,-0.2745,-0.2744,-0.2744,0,0,-0.259,-0.2608,-0.2641,-0.2677,-0.2721,-0.2743,-0.2754,-0.2794,-0.2798,-0.2834,-0.2813,-0.2822,-0.2839,-0.2842,-0.2844,-0.2901,-0.2865,-0.2902,-0.2929,-0.2934,-0.2939,-0.2944,-0.2943,-0.2947,-0.2901,-0.2901,-0.2901,0,-0.2587,-0.2634,-0.2659,-0.2705,-0.2732,-0.275,-0.2794,-0.282,-0.2855,-0.2862,-0.2846,-0.2872,-0.2868,-0.2896,-0.2913,-0.2916,-0.2906,-0.2893,-0.2942,-0.2946,-0.295,-0.2947,-0.2951,-0.2904,-0.2903,-0.2903,-0.2903,0,-0.2638,-0.2676,-0.2701,-0.2759,-0.2796,-0.2837,-0.2881,-0.2907,-0.2908,-0.2925,-0.2951,-0.2953,-0.2958,-0.2968,-0.2956,-0.2986,-0.2967,-0.2952,-0.2914,-0.296,-0.2955,-0.2958,-0.2908,-0.2907,-0.2906,-0.2905,0,0,-0.2615,-0.2717,-0.2719,-0.2749,-0.2824,-0.2855,-0.2912,-0.2961,-0.2981,-0.3007,-0.3028,-0.3051,-0.3033,-0.3035,-0.3023,-0.3029,-0.3052,-0.3,-0.2999,-0.299,-0.3056,-0.2988,-0.2985,-0.304,-0.304,-0.3041,-0.3044,0,-0.2637,-0.2721,-0.2769,-0.2835,-0.2878,-0.292,-0.297,-0.3014,-0.3037,-0.3066,-0.3068,-0.3086,-0.3065,-0.3062,-0.3067,-0.3056,-0.3061,-0.3052,-0.302,-0.3019,-0.2946,-0.2986,-0.2854,-0.284,-0.3046,-0.3047,-0.3047,0,-0.2655,-0.2708,-0.2782,-0.2863,-0.2884,-0.2928,-0.2984,-0.3033,-0.3087,-0.3104,-0.3121,-0.3122,-0.3138,-0.3111,-0.3111,-0.3102,-0.3083,-0.3073,-0.3072,-0.2989,-0.2957,-0.2827,-0.2837,-0.2812,-0.3051,-0.3051,-0.305,0,-0.2597,-0.2703,-0.2753,-0.2785,-0.2892,-0.2919,-0.2963,-0.3029,-0.3065,-0.3115,-0.314,-0.3158,-0.3161,-0.315,-0.3129,-0.3118,-0.3125,-0.3106,-0.3031,-0.3026,-0.2896,-0.2878,-0.2865,-0.3107,-0.3107,-0.3107,-0.3107,0,-0.2587,-0.2619,-0.2726,-0.2752,-0.2795,-0.2881,-0.2926,-0.2974,-0.3052,-0.3085,-0.3137,-0.3162,-0.3168,-0.3174,-0.3148,-0.3096,-0.3138,-0.3039,-0.3023,-0.2912,-0.2896,-0.2853,-0.2867,-0.3108,-0.3108,-0.3108,-0.3108,0,-0.2506,-0.2588,-0.2638,-0.2742,-0.2769,-0.2787,-0.289,-0.2922,-0.3013,-0.3058,-0.3075,-0.316,-0.3163,-0.3168,-0.3156,-0.3109,-0.3017,-0.3049,-0.2917,-0.2884,-0.2766,-0.2788,-0.2742,-0.2666,-0.2958,-0.2956,-0.2955,0,-0.2471,-0.2492,-0.2589,-0.2605,-0.2646,-0.2701,-0.2739,-0.2863,-0.2906,-0.3045,-0.3053,-0.311,-0.3114,-0.3095,-0.3035,-0.2982,-0.2958,-0.2824,-0.2776,-0.2745,-0.2759,-0.2763,-0.2703,-0.2632,-0.2628,-0.2625,-0.2623,0,-0.2377,-0.241,-0.2445,-0.2485,-0.2522,-0.2572,-0.2639,-0.2682,-0.2824,-0.2881,-0.2952,-0.298,-0.2999,-0.2901,-0.2854,-0.2796,-0.2737,-0.2755,-0.2754,-0.2529,-0.2501,-0.2424,-0.2657,-0.2594,-0.2597,-0.2599,-0.2601,-0.2602,-0.2273,-0.2267,-0.2311,-0.233,-0.2373,-0.2404,-0.2397,-0.2501,-0.2554,-0.2617,-0.2754,-0.2762,-0.2752,-0.2669,-0.2627,-0.2493,-0.2549,-0.2396,-0.2435,-0.245,-0.2344,-0.2516,-0.2416,-0.2418,-0.2419,-0.2421,-0.2422,0,-0.2127,-0.2139,-0.2151,-0.2173,-0.2153,-0.2233,-0.2291,-0.2268,-0.2274,-0.2394,-0.2431,-0.2467,-0.2376,-0.2388,-0.2296,-0.22,-0.2142,-0.2146,-0.2121,-0.2081,-0.2246,-0.2196,-0.2004,-0.2004,-0.2004,-0.2004,-0.2004,-0.2004,-0.205,-0.2007,-0.2017,-0.1935,-0.1946,-0.1875,-0.1871,-0.1872,-0.1923,-0.1956,-0.2033,-0.2152,-0.2183,-0.2286,-0.2156,-0.2053,-0.2001,-0.1933,-0.198,-0.2108,-0.2134,-0.216,-0.2116,-0.191,-0.191,-0.1716,-0.1715,-0.1714]},{"header":{"parameterUnit":"m.s-1","parameterCategory":2,"la1":30.2991,"la2":30.254,"lo1":-89.0895,"lo2":-89.0444,"dy":0.0017,"dx":0.0017,"nx":28,"ny":28,"refTime":"2025-08-09T21:00:00:Z","depth":"0","parameterNumber":3,"parameterNumberName":"V-component_of_CURRENTS"},"data":[0,0,0,0,0,0,0,0,0,0,0,0,0,0,0,0,0,0,0,0,0,0,0,0,0,0,0,0,0,0,0,0,0,0,0,0,0,0,0,0,0,0,0,0,0,0,0,0,0,0,0,0,0,0,0,0,0,0,-0.0237,-0.0237,0,-0.0151,-0.015,-0.0149,-0.0083,-0.0083,-0.0082,-0.0082,0.0046,0.0049,0.0052,0,0,0,0,0,0,0,0,0,0,0,0,0,-0.0281,-0.0281,-0.0237,-0.0237,-0.0236,-0.0152,-0.015,-0.0149,-0.0083,-0.0082,-0.0082,-0.0082,0.0045,0.0049,0.0053,0,0,0,0,0,0,0,0,0,0,0,0,0,-0.0233,-0.0281,-0.0238,-0.0195,-0.019,-0.0152,-0.015,-0.0148,-0.0083,-0.0082,-0.0082,-0.0081,0.0044,0.0049,0.0053,0.007,0,0,0.0067,0.0069,0,0,0,0,0,0,0,0,-0.0236,-0.0232,-0.0202,-0.0198,-0.0192,-0.0129,-0.0119,-0.0074,-0.0083,-0.0121,-0.0082,-0.0081,-0.0011,-0.0001,0.0016,0.0076,0.0081,0.0068,0.007,0.0072,0.0074,0,0,0,0,0,0,0,-0.024,-0.0235,-0.0201,-0.0201,-0.0195,-0.0158,-0.0151,-0.011,-0.0067,-0.0118,-0.0113,-0.0108,-0.0007,0.0012,0.002,0.0083,0.0067,0.0071,0.0074,0.0076,0.0178,0.0178,0,0,0,0,0,0,-0.0259,-0.0238,-0.0204,-0.0198,-0.0216,-0.0158,-0.015,-0.0148,-0.0069,-0.0057,-0.0109,-0.0105,0.0004,0.0015,0.0025,0.0051,0.0072,0.0077,0.0079,0.0178,0.0178,0.0178,0,0,0,0,0,0,-0.0261,-0.0257,-0.0207,-0.0218,-0.0209,-0.0159,-0.0157,-0.0147,-0.0129,-0.0063,-0.0049,-0.0101,0.0005,0.0018,0.0061,0.0056,0.0079,0.0083,0.0178,0.0178,0.0178,0.0101,0,0,0,0,0,0,-0.0262,-0.0258,-0.0265,-0.022,-0.021,-0.0195,-0.0157,-0.0146,-0.0127,-0.0122,-0.0052,-0.0039,0.0006,0.0053,0.0065,0.0063,0.0086,0.0178,0.0178,0.0178,0.0104,0.0099,0.0094,0,0,0,0,0,-0.0264,-0.0281,-0.0266,-0.0262,-0.022,-0.0196,-0.0188,-0.0147,-0.0128,-0.0127,-0.0074,-0.0041,0.0062,0.0057,0.0071,0.007,0.0178,0.0178,0.0178,0.0106,0.01,0.0094,0,0,0,0,0,0,-0.0305,-0.0275,-0.0257,-0.0264,-0.0237,-0.0186,-0.0183,-0.0155,-0.0113,-0.0106,-0.0041,-0.0025,0.0011,0.005,0.0044,0.0099,0.0125,0.0127,0.0066,0.006,0.0055,0.0045,0.009,0,0,0,0,0,-0.0319,-0.0322,-0.0284,-0.029,-0.028,-0.0232,-0.0218,-0.0191,-0.0149,-0.013,-0.008,-0.0025,0.0021,0.0047,0.0093,0.0122,0.0166,0.0131,0.0126,0.0121,0.0122,0.018,0.018,0.0178,0.0178,0.0178,0,0,-0.0336,-0.032,-0.0321,-0.0299,-0.0272,-0.0268,-0.0222,-0.0208,-0.0196,-0.0123,-0.0093,-0.0042,0.0025,0.006,0.0079,0.0092,0.0145,0.0121,0.0117,0.0121,0.018,0.018,0.018,0.0178,0.0178,0.0178,0,0,-0.0378,-0.0358,-0.0377,-0.036,-0.0333,-0.0299,-0.03,-0.0254,-0.0225,-0.0192,-0.0135,-0.0089,-0.0021,0.0028,0.0061,0.0057,0.0116,0.0071,0.0041,0.0096,0.0096,0.0097,0.0149,0.0155,0.007,0.007,0.007,0,-0.0401,-0.0417,-0.0379,-0.0391,-0.0382,-0.032,-0.0333,-0.0295,-0.024,-0.0215,-0.0195,-0.0086,-0.0035,0.0019,0.002,0.0045,0.0088,0.0054,0.0088,0.009,0.0093,0.0146,0.0154,0.0066,0.0066,0.0067,0.0067,0,-0.0455,-0.0466,-0.0476,-0.0468,-0.045,-0.0452,-0.0398,-0.0372,-0.0329,-0.0284,-0.0224,-0.0149,-0.0083,-0.0061,-0.002,0.0024,0.0051,0.0072,0.0099,0.0088,0.0145,0.0155,0.0061,0.0062,0.0063,0.0064,0,0,-0.0506,-0.0515,-0.0518,-0.0529,-0.0491,-0.0484,-0.0459,-0.0415,-0.0395,-0.0329,-0.0295,-0.0211,-0.0161,-0.012,-0.006,-0.0009,0.0042,0.0035,0.0039,0.0078,0.0166,0.0222,0.0238,0.007,0.0071,0.0072,0.0197,0,-0.056,-0.0614,-0.0589,-0.0618,-0.0637,-0.0571,-0.0552,-0.05,-0.0438,-0.0387,-0.0295,-0.024,-0.0185,-0.0153,-0.0094,0.0013,0.0065,0.0006,0.0178,0.0184,0.0227,0.025,0.0274,0.039,0.0207,0.0208,0.0209,0,-0.062,-0.0647,-0.0699,-0.0698,-0.0697,-0.0695,-0.0645,-0.0619,-0.0524,-0.0475,-0.0395,-0.0314,-0.0219,-0.0179,-0.0006,-0.0044,0.0052,0.0132,0.0139,0.0225,0.0257,0.0374,0.0416,0.0578,0.0225,0.0224,0.0223,0,-0.0687,-0.0717,-0.0763,-0.0765,-0.0753,-0.075,-0.0728,-0.065,-0.0625,-0.0526,-0.049,-0.0363,-0.0297,-0.0159,0.0018,0.0007,0.0211,0.0214,0.0355,0.0359,0.0433,0.0442,0.0647,0.0328,0.0328,0.0328,0.0327,0,-0.0757,-0.0789,-0.0802,-0.083,-0.0866,-0.0822,-0.0826,-0.0779,-0.0709,-0.068,-0.0544,-0.0483,-0.0289,-0.0141,0.0009,0.0225,0.0208,0.0362,0.0401,0.0407,0.0412,0.0599,0.0649,0.0333,0.0331,0.0331,0.033,0,-0.0826,-0.0837,-0.0892,-0.0903,-0.0906,-0.0929,-0.0908,-0.0902,-0.0821,-0.0777,-0.0748,-0.0568,-0.0365,-0.0155,0.0081,0.0214,0.0513,0.0486,0.0481,0.0518,0.0786,0.0828,0.1067,0.1147,0.0654,0.0657,0.0658,0,-0.0869,-0.0909,-0.0958,-0.0993,-0.1002,-0.1024,-0.1035,-0.0972,-0.0956,-0.0821,-0.0803,-0.0598,-0.0432,-0.0048,0.0225,0.0512,0.0621,0.069,0.0673,0.0824,0.09,0.0932,0.0982,0.0739,0.0741,0.0743,0.0744,0,-0.0943,-0.096,-0.1005,-0.1085,-0.1119,-0.115,-0.1154,-0.116,-0.1072,-0.1002,-0.0864,-0.0717,-0.033,0.0024,0.0404,0.0574,0.0805,0.0739,0.0904,0.0998,0.1038,0.1125,0.0629,0.0762,0.076,0.0759,0.0758,0.0757,-0.0984,-0.1038,-0.1099,-0.1166,-0.1214,-0.1256,-0.1272,-0.1248,-0.1207,-0.1078,-0.0929,-0.067,-0.0156,0.0398,0.0599,0.1022,0.097,0.1136,0.1179,0.1201,0.1275,0.0817,0.0986,0.0986,0.0986,0.0985,0.0985,0,-0.1032,-0.1092,-0.1172,-0.125,-0.131,-0.1311,-0.1332,-0.1312,-0.1257,-0.1097,-0.0926,-0.0362,0.0154,0.0626,0.1226,0.1451,0.1483,0.1558,0.161,0.1642,0.1259,0.1259,0.1485,0.1485,0.1484,0.1484,0.1484,0.1484,-0.1058,-0.1146,-0.1191,-0.1304,-0.1355,-0.1396,-0.1401,-0.1351,-0.1235,-0.0944,-0.0632,-0.0381,0.031,0.1278,0.1831,0.1876,0.2037,0.2024,0.2117,0.1852,0.1816,0.1781,0.1798,0.2132,0.2133,0.2484,0.2487,0.249]}],[{"header":{"parameterUnit":"m.s-1","parameterCategory":2,"la1":30.2991,"la2":30.254,"lo1":-89.0895,"lo2":-89.0444,"dy":0.0017,"dx":0.0017,"nx":28,"ny":28,"refTime":"2025-08-09T21:00:00:Z","depth":"2","parameterNumber":2,"parameterNumberName":"U-component_of_CURRENTS"},"data":[0,0,0,0,0,0,0,0,0,0,0,0,0,0,0,0,0,0,0,0,0,0,0,0,0,0,0,0,0,0,0,0,0,0,0,0,0,0,0,0,0,0,0,0,0,0,0,0,0,0,0,0,0,0,0,0,0,0,-0.2347,-0.2347,0,-0.2393,-0.2393,-0.2393,-0.237,-0.2369,-0.2368,-0.2367,-0.2347,-0.2347,-0.2348,0,0,0,0,0,0,0,0,0,0,0,0,0,-0.2246,-0.2248,-0.2346,-0.2347,-0.2348,-0.2393,-0.2393,-0.2393,-0.237,-0.2369,-0.2367,-0.2366,-0.2347,-0.2347,-0.2348,0,0,0,0,0,0,0,0,0,0,0,0,0,-0.2288,-0.2248,-0.2346,-0.2344,-0.2344,-0.2393,-0.2393,-0.2394,-0.237,-0.2369,-0.2367,-0.2366,-0.2347,-0.2347,-0.2348,-0.2381,0,0,-0.235,-0.235,0,0,0,0,0,0,0,0,-0.2286,-0.2292,-0.2343,-0.2344,-0.2344,-0.2376,-0.2351,-0.2387,-0.237,-0.2357,-0.2367,-0.2365,-0.2354,-0.2354,-0.2363,-0.238,-0.238,-0.235,-0.235,-0.235,-0.2351,0,0,0,0,0,0,0,-0.2283,-0.229,-0.2362,-0.2344,-0.2345,-0.2343,-0.2347,-0.2358,-0.236,-0.2359,-0.2358,-0.2367,-0.2353,-0.2362,-0.2362,-0.2379,-0.235,-0.235,-0.2351,-0.2351,-0.2425,-0.2426,0,0,0,0,0,0,-0.2284,-0.2287,-0.2361,-0.2364,-0.2314,-0.2346,-0.2351,-0.2365,-0.2361,-0.2361,-0.2369,-0.2366,-0.2362,-0.2361,-0.2361,-0.2402,-0.235,-0.2351,-0.2351,-0.2423,-0.2425,-0.2427,0,0,0,0,0,0,-0.2282,-0.2291,-0.2359,-0.2328,-0.2337,-0.235,-0.2366,-0.2367,-0.2374,-0.237,-0.2367,-0.2375,-0.2361,-0.236,-0.2377,-0.2401,-0.2351,-0.2352,-0.2421,-0.2424,-0.2426,-0.2483,0,0,0,0,0,0,-0.2279,-0.229,-0.2299,-0.2328,-0.2339,-0.2396,-0.2368,-0.2369,-0.2384,-0.2381,-0.2375,-0.2371,-0.236,-0.2376,-0.2377,-0.2401,-0.2352,-0.2419,-0.2422,-0.2425,-0.2479,-0.2487,-0.2494,0,0,0,0,0,-0.2275,-0.23,-0.23,-0.2308,-0.2352,-0.2398,-0.2403,-0.2405,-0.2386,-0.2402,-0.2394,-0.2371,-0.2396,-0.2378,-0.2379,-0.2403,-0.2418,-0.2422,-0.2425,-0.2476,-0.2485,-0.2493,0,0,0,0,0,0,-0.2263,-0.2301,-0.2301,-0.2336,-0.2367,-0.2395,-0.2409,-0.2411,-0.242,-0.2411,-0.2394,-0.2392,-0.2417,-0.2407,-0.2387,-0.2435,-0.2403,-0.2407,-0.2441,-0.245,-0.2457,-0.2453,-0.2353,0,0,0,0,0,-0.2266,-0.2289,-0.2328,-0.2354,-0.2371,-0.239,-0.2406,-0.2413,-0.2427,-0.2429,-0.2426,-0.2425,-0.2436,-0.2438,-0.2448,-0.2474,-0.246,-0.2491,-0.2498,-0.2504,-0.2503,-0.2506,-0.2513,-0.2439,-0.2439,-0.2439,0,0,-0.2269,-0.2291,-0.2305,-0.2352,-0.2371,-0.2411,-0.2395,-0.2429,-0.2457,-0.2426,-0.2454,-0.2453,-0.2451,-0.2481,-0.2491,-0.2471,-0.2521,-0.2509,-0.2514,-0.2509,-0.2511,-0.2518,-0.2524,-0.2441,-0.2441,-0.244,0,0,-0.229,-0.2306,-0.2335,-0.2367,-0.2407,-0.2426,-0.2438,-0.2475,-0.2482,-0.2518,-0.2502,-0.2515,-0.2533,-0.2537,-0.2539,-0.2595,-0.2563,-0.2599,-0.2628,-0.2632,-0.2638,-0.2643,-0.2643,-0.2647,-0.2599,-0.2599,-0.2599,0,-0.229,-0.233,-0.2352,-0.2392,-0.2417,-0.2435,-0.2475,-0.25,-0.2535,-0.2544,-0.2533,-0.2564,-0.2561,-0.2591,-0.2609,-0.2611,-0.2603,-0.2593,-0.264,-0.2645,-0.2648,-0.2647,-0.2651,-0.2602,-0.2602,-0.2601,-0.2601,0,-0.2334,-0.237,-0.2391,-0.2443,-0.2477,-0.2515,-0.2555,-0.2583,-0.259,-0.2607,-0.2639,-0.2642,-0.2652,-0.2663,-0.2652,-0.2684,-0.2667,-0.2651,-0.2613,-0.2659,-0.2656,-0.2659,-0.2606,-0.2605,-0.2604,-0.2604,0,0,-0.2316,-0.2406,-0.2409,-0.2436,-0.2504,-0.2532,-0.2587,-0.2634,-0.2657,-0.2687,-0.2712,-0.2739,-0.2727,-0.2729,-0.2721,-0.2727,-0.2753,-0.2701,-0.27,-0.2694,-0.2758,-0.2687,-0.2683,-0.2741,-0.2742,-0.2742,-0.2748,0,-0.2337,-0.2411,-0.2454,-0.2516,-0.2554,-0.2594,-0.2642,-0.2685,-0.2712,-0.2744,-0.2751,-0.2774,-0.2757,-0.2759,-0.2766,-0.2756,-0.2762,-0.2753,-0.2721,-0.272,-0.2645,-0.2685,-0.2471,-0.2452,-0.275,-0.2751,-0.2751,0,-0.2353,-0.2401,-0.2469,-0.2543,-0.2563,-0.2605,-0.2662,-0.2708,-0.2763,-0.2784,-0.2807,-0.2812,-0.2833,-0.2807,-0.2812,-0.2804,-0.2786,-0.2776,-0.2776,-0.2688,-0.2654,-0.2454,-0.2446,-0.2756,-0.2755,-0.2755,-0.2755,0,-0.2304,-0.2399,-0.2446,-0.2476,-0.2574,-0.2602,-0.2644,-0.271,-0.2745,-0.28,-0.2825,-0.285,-0.2856,-0.2848,-0.2829,-0.2821,-0.2825,-0.2809,-0.2732,-0.2727,-0.2526,-0.2502,-0.2811,-0.2811,-0.2811,-0.2811,-0.2811,0,-0.2296,-0.2328,-0.2426,-0.2451,-0.2494,-0.2573,-0.262,-0.2667,-0.2741,-0.2772,-0.2828,-0.285,-0.2865,-0.2869,-0.2847,-0.2795,-0.2837,-0.274,-0.2724,-0.2542,-0.252,-0.2764,-0.2759,-0.2811,-0.2811,-0.2811,-0.2811,0,-0.2227,-0.2302,-0.235,-0.2448,-0.2473,-0.2495,-0.259,-0.2621,-0.2709,-0.2751,-0.2769,-0.2849,-0.2853,-0.2861,-0.2851,-0.2805,-0.2773,-0.2744,-0.2531,-0.2488,-0.267,-0.2667,-0.266,-0.2657,-0.2655,-0.2653,-0.2652,0,-0.2197,-0.2219,-0.231,-0.2327,-0.2367,-0.2423,-0.2457,-0.2572,-0.2608,-0.2734,-0.2738,-0.2795,-0.2787,-0.2768,-0.2709,-0.2658,-0.2724,-0.243,-0.2376,-0.267,-0.2655,-0.2656,-0.2656,-0.2139,-0.2133,-0.2128,-0.2125,0,-0.2116,-0.215,-0.2184,-0.2223,-0.2259,-0.2303,-0.2364,-0.2398,-0.2524,-0.2571,-0.2622,-0.2639,-0.2651,-0.2508,-0.2466,-0.2401,-0.2422,-0.2336,-0.2688,-0.2216,-0.218,-0.2165,-0.2182,-0.2084,-0.2088,-0.2091,-0.2094,-0.2095,-0.2027,-0.2024,-0.2067,-0.2087,-0.2127,-0.2147,-0.2135,-0.2218,-0.2254,-0.229,-0.2413,-0.2373,-0.2376,-0.2206,-0.2114,-0.2044,-0.2205,-0.2085,-0.2098,-0.2117,-0.2061,-0.2024,-0.1889,-0.1891,-0.1894,-0.1896,-0.1898,0,-0.19,-0.1912,-0.1924,-0.1944,-0.1924,-0.1998,-0.2034,-0.1998,-0.1978,-0.2054,-0.2069,-0.1884,-0.1812,-0.1834,-0.1678,-0.1653,-0.1624,-0.1568,-0.1525,-0.1565,-0.1601,-0.1519,-0.1203,-0.1201,-0.12,-0.1198,0,0,-0.1832,-0.1795,-0.1802,-0.1724,-0.1735,-0.1662,-0.1646,-0.1617,-0.163,-0.1573,-0.156,-0.1707,-0.1772,-0.1485,-0.1421,-0.1293,-0.141,-0.1222,-0.1777,-0.1764,-0.1798,-0.1894,-0.1812,0,0,0,0,0]},{"header":{"parameterUnit":"m.s-1","parameterCategory":2,"la1":30.2991,"la2":30.254,"lo1":-89.0895,"lo2":-89.0444,"dy":0.0017,"dx":0.0017,"nx":28,"ny":28,"refTime":"2025-08-09T21:00:00:Z","depth":"2","parameterNumber":3,"parameterNumberName":"V-component_of_CURRENTS"},"data":[0,0,0,0,0,0,0,0,0,0,0,0,0,0,0,0,0,0,0,0,0,0,0,0,0,0,0,0,0,0,0,0,0,0,0,0,0,0,0,0,0,0,0,0,0,0,0,0,0,0,0,0,0,0,0,0,0,0,-0.015,-0.015,0,-0.0072,-0.0071,-0.007,-0.001,-0.0009,-0.0009,-0.0009,0.011,0.0113,0.0116,0,0,0,0,0,0,0,0,0,0,0,0,0,-0.0189,-0.0189,-0.015,-0.015,-0.0149,-0.0072,-0.0071,-0.007,-0.001,-0.0009,-0.0009,-0.0009,0.0109,0.0112,0.0116,0,0,0,0,0,0,0,0,0,0,0,0,0,-0.0146,-0.0189,-0.0151,-0.0112,-0.0108,-0.0072,-0.0071,-0.0069,-0.001,-0.0009,-0.0009,-0.0008,0.0108,0.0112,0.0116,0.0132,0,0,0.0129,0.0131,0,0,0,0,0,0,0,0,-0.0148,-0.0144,-0.0118,-0.0114,-0.011,-0.0052,-0.0041,-0.0001,-0.001,-0.0044,-0.0009,-0.0008,0.0058,0.0066,0.0082,0.0138,0.0143,0.013,0.0132,0.0134,0.0135,0,0,0,0,0,0,0,-0.0151,-0.0147,-0.0117,-0.0117,-0.0112,-0.0078,-0.0072,-0.0033,0.0005,-0.0041,-0.0037,-0.0033,0.0061,0.0078,0.0086,0.0145,0.013,0.0133,0.0136,0.0138,0.0233,0.0233,0,0,0,0,0,0,-0.017,-0.015,-0.0119,-0.0115,-0.0131,-0.0078,-0.0071,-0.0069,0.0004,0.0015,-0.0033,-0.003,0.0071,0.0081,0.009,0.0115,0.0134,0.0138,0.0141,0.0233,0.0233,0.0233,0,0,0,0,0,0,-0.0171,-0.0168,-0.0123,-0.0132,-0.0124,-0.0079,-0.0077,-0.0068,-0.0052,0.0009,0.0022,-0.0027,0.0071,0.0084,0.0123,0.012,0.014,0.0144,0.0233,0.0233,0.0233,0.0165,0,0,0,0,0,0,-0.0172,-0.0169,-0.0176,-0.0134,-0.0125,-0.0112,-0.0077,-0.0067,-0.0051,-0.0046,0.0019,0.0031,0.0073,0.0117,0.0128,0.0127,0.0147,0.0234,0.0233,0.0233,0.0167,0.0162,0.0158,0,0,0,0,0,-0.0174,-0.019,-0.0176,-0.0173,-0.0135,-0.0113,-0.0105,-0.0069,-0.0051,-0.0051,-0.0002,0.0028,0.0124,0.012,0.0133,0.0133,0.0234,0.0233,0.0233,0.0169,0.0163,0.0159,0,0,0,0,0,0,-0.0212,-0.0185,-0.0169,-0.0176,-0.0151,-0.0104,-0.0102,-0.0076,-0.0038,-0.0032,0.0029,0.0044,0.0077,0.0114,0.0108,0.0161,0.0184,0.0186,0.013,0.0126,0.0121,0.011,0.0151,0,0,0,0,0,-0.0225,-0.0228,-0.0194,-0.02,-0.0191,-0.0147,-0.0134,-0.011,-0.0071,-0.0054,-0.0007,0.0043,0.0087,0.0112,0.0154,0.0182,0.0222,0.0191,0.0187,0.0183,0.0183,0.0238,0.0238,0.0233,0.0233,0.0233,0,0,-0.024,-0.0227,-0.0228,-0.0208,-0.0184,-0.018,-0.0138,-0.0126,-0.0115,-0.0047,-0.0019,0.0028,0.0091,0.0124,0.0142,0.0154,0.0204,0.0183,0.0179,0.0181,0.0238,0.0239,0.0239,0.0233,0.0233,0.0233,0,0,-0.028,-0.0263,-0.028,-0.0265,-0.024,-0.0209,-0.0211,-0.0168,-0.0142,-0.0112,-0.0058,-0.0015,0.0049,0.0096,0.0128,0.0125,0.0178,0.0137,0.011,0.0163,0.0164,0.0165,0.0209,0.0214,0.0137,0.0137,0.0137,0,-0.0301,-0.0317,-0.0282,-0.0294,-0.0285,-0.0229,-0.0241,-0.0206,-0.0155,-0.0131,-0.0114,-0.0011,0.0036,0.009,0.0091,0.0115,0.0152,0.0122,0.0156,0.0159,0.0161,0.0206,0.0213,0.0134,0.0134,0.0135,0.0135,0,-0.0352,-0.0362,-0.0371,-0.0364,-0.0348,-0.035,-0.03,-0.0276,-0.0237,-0.0195,-0.0138,-0.0068,-0.0005,0.0016,0.0054,0.0097,0.0119,0.0141,0.0166,0.0157,0.0205,0.0214,0.0129,0.013,0.0131,0.0132,0,0,-0.0401,-0.0408,-0.041,-0.042,-0.0386,-0.0379,-0.0355,-0.0314,-0.0295,-0.0234,-0.0201,-0.0121,-0.0075,-0.0036,0.0021,0.0069,0.0114,0.0107,0.0112,0.0143,0.0229,0.0268,0.0282,0.0143,0.0145,0.0146,0.0252,0,-0.0451,-0.0499,-0.0476,-0.0502,-0.0519,-0.0457,-0.044,-0.0391,-0.0334,-0.0287,-0.0198,-0.0147,-0.0096,-0.0067,-0.0009,0.0088,0.0136,0.0083,0.0239,0.0244,0.0274,0.0293,0.0252,0.0346,0.0261,0.0262,0.0263,0,-0.0507,-0.0531,-0.0578,-0.0575,-0.0574,-0.0573,-0.0526,-0.0502,-0.0412,-0.0367,-0.0291,-0.0216,-0.0125,-0.0089,0.0071,0.0037,0.0123,0.0196,0.0202,0.027,0.03,0.0344,0.0366,0.0279,0.0277,0.0276,0.0275,0,-0.057,-0.0597,-0.0638,-0.064,-0.0626,-0.0624,-0.0604,-0.0531,-0.0508,-0.0415,-0.0384,-0.0261,-0.0201,-0.0073,0.0087,0.008,0.0262,0.0272,0.0388,0.0392,0.0405,0.0408,0.0377,0.0376,0.0376,0.0376,0.0376,0,-0.0636,-0.0665,-0.0676,-0.0701,-0.0734,-0.0692,-0.0697,-0.0654,-0.0588,-0.0562,-0.0435,-0.0381,-0.0194,-0.006,0.0077,0.0268,0.0259,0.0392,0.0428,0.038,0.0379,0.0359,0.0355,0.038,0.0379,0.0378,0.0377,0,-0.0702,-0.071,-0.076,-0.0769,-0.0773,-0.0795,-0.0776,-0.0771,-0.0697,-0.0657,-0.0632,-0.0467,-0.0284,-0.0088,0.0131,0.0253,0.043,0.0495,0.0424,0.045,0.0522,0.0514,0.0633,0.0635,0.0637,0.0639,0.0641,0,-0.0743,-0.0779,-0.0824,-0.0856,-0.0866,-0.0887,-0.0897,-0.0839,-0.0824,-0.0705,-0.069,-0.0507,-0.0359,-0.0013,0.0232,0.0491,0.0487,0.0596,0.0579,0.0529,0.0552,0.054,0.0529,0.0565,0.0566,0.0566,0.0567,0,-0.0814,-0.083,-0.0871,-0.0946,-0.0978,-0.1006,-0.1011,-0.1016,-0.0934,-0.0874,-0.0757,-0.0628,-0.0287,0.0003,0.0343,0.0487,0.0554,0.0616,0.0597,0.0506,0.0474,0.0493,0.0483,0.0572,0.0571,0.0571,0.0571,0.057,-0.0856,-0.0906,-0.0962,-0.1026,-0.1069,-0.1106,-0.1121,-0.1099,-0.1064,-0.0949,-0.0824,-0.0601,-0.0313,0.0173,0.0413,0.0635,0.0634,0.0684,0.0679,0.0673,0.0646,0.0619,0.0739,0.074,0.074,0.074,0.0741,0,-0.0907,-0.0961,-0.1034,-0.1105,-0.116,-0.1162,-0.1178,-0.1157,-0.1109,-0.0972,-0.0825,-0.0504,-0.0163,0.0138,0.0497,0.0713,0.0685,0.0738,0.0656,0.065,0.0645,0.0613,0.0699,0.07,0.07,0.0701,0,0,-0.0934,-0.1015,-0.1055,-0.1157,-0.1206,-0.1244,-0.1248,-0.1194,-0.1092,-0.0944,-0.0773,-0.0534,-0.0159,0.0082,0.0353,0.0538,0.0534,0.055,0.0561,0.0427,0.0419,0.0596,0.0538,0,0,0,0,0]}],[{"header":{"parameterUnit":"m.s-1","parameterCategory":2,"la1":30.2991,"la2":30.254,"lo1":-89.0895,"lo2":-89.0444,"dy":0.0017,"dx":0.0017,"nx":28,"ny":28,"refTime":"2025-08-09T21:00:00:Z","depth":"4","parameterNumber":2,"parameterNumberName":"U-component_of_CURRENTS"},"data":[0,0,0,0,0,0,0,0,0,0,0,0,0,0,0,0,0,0,0,0,0,0,0,0,0,0,0,0,0,0,0,0,0,0,0,0,0,0,0,0,0,0,0,0,0,0,0,0,0,0,0,0,0,0,0,0,0,0,-0.1638,-0.1639,0,-0.1707,-0.1708,-0.1708,-0.1741,-0.1741,-0.1741,-0.1741,-0.1792,-0.1793,-0.1794,0,0,0,0,0,0,0,0,0,0,0,0,0,-0.1537,-0.1539,-0.1638,-0.1639,-0.164,-0.1707,-0.1708,-0.1708,-0.1741,-0.1741,-0.1741,-0.1741,-0.1792,-0.1793,-0.1794,0,0,0,0,0,0,0,0,0,0,0,0,0,-0.1589,-0.1539,-0.1638,-0.1666,-0.1669,-0.1707,-0.1708,-0.1709,-0.1741,-0.1741,-0.1741,-0.1741,-0.1791,-0.1793,-0.1795,-0.1802,0,0,-0.18,-0.1801,0,0,0,0,0,0,0,0,-0.1586,-0.1593,-0.1661,-0.1664,-0.1668,-0.1717,-0.1691,-0.1739,-0.1741,-0.1712,-0.1741,-0.1742,-0.1766,-0.177,-0.178,-0.1804,-0.1806,-0.18,-0.1802,-0.1802,-0.1803,0,0,0,0,0,0,0,-0.1583,-0.159,-0.1663,-0.1662,-0.1666,-0.1676,-0.1683,-0.17,-0.1735,-0.1714,-0.1717,-0.1728,-0.1768,-0.1778,-0.1782,-0.1807,-0.18,-0.1802,-0.1803,-0.1804,-0.1913,-0.1915,0,0,0,0,0,0,-0.1578,-0.1587,-0.1661,-0.1666,-0.1629,-0.1678,-0.1686,-0.17,-0.1735,-0.1742,-0.1728,-0.1729,-0.1775,-0.1779,-0.1784,-0.1865,-0.1802,-0.1804,-0.1805,-0.1911,-0.1913,-0.1915,0,0,0,0,0,0,-0.1576,-0.1584,-0.1659,-0.1629,-0.1639,-0.1679,-0.1694,-0.1701,-0.1738,-0.1746,-0.1752,-0.1761,-0.1776,-0.1781,-0.1827,-0.1865,-0.1805,-0.1806,-0.1909,-0.1912,-0.1914,-0.1983,0,0,0,0,0,0,-0.1572,-0.1583,-0.1605,-0.1629,-0.1641,-0.1703,-0.1695,-0.1702,-0.1743,-0.1747,-0.1776,-0.178,-0.1776,-0.1825,-0.1829,-0.1866,-0.1808,-0.1907,-0.191,-0.1913,-0.1978,-0.1988,-0.1996,0,0,0,0,0,-0.1569,-0.1596,-0.1605,-0.1615,-0.1665,-0.1704,-0.1712,-0.1739,-0.1745,-0.1771,-0.1792,-0.178,-0.1849,-0.1828,-0.1832,-0.1871,-0.1905,-0.1909,-0.1913,-0.1975,-0.1986,-0.1995,0,0,0,0,0,0,-0.1567,-0.1602,-0.1613,-0.1652,-0.1685,-0.1711,-0.1741,-0.1756,-0.1793,-0.1803,-0.1804,-0.181,-0.1864,-0.1859,-0.1836,-0.1913,-0.1875,-0.188,-0.192,-0.1931,-0.1939,-0.1932,-0.1809,0,0,0,0,0,-0.1575,-0.1604,-0.1638,-0.1671,-0.169,-0.172,-0.1744,-0.1765,-0.1794,-0.1812,-0.1833,-0.1856,-0.1881,-0.19,-0.192,-0.1962,-0.1944,-0.199,-0.1999,-0.2006,-0.2004,-0.2011,-0.202,-0.1929,-0.1929,-0.1929,0,0,-0.1586,-0.1608,-0.1627,-0.1673,-0.17,-0.1739,-0.1736,-0.1784,-0.1822,-0.1811,-0.1876,-0.189,-0.1899,-0.1949,-0.1973,-0.1953,-0.2025,-0.2011,-0.2017,-0.2011,-0.2016,-0.2025,-0.2032,-0.1931,-0.1931,-0.193,0,0,-0.1611,-0.1641,-0.1672,-0.1704,-0.1754,-0.1773,-0.1793,-0.1839,-0.1868,-0.1926,-0.1928,-0.1965,-0.2009,-0.2021,-0.203,-0.2098,-0.2071,-0.2111,-0.215,-0.2158,-0.2165,-0.2171,-0.2166,-0.2171,-0.2115,-0.2115,-0.2115,0,-0.1625,-0.1664,-0.169,-0.1728,-0.1759,-0.1791,-0.1834,-0.187,-0.1928,-0.1953,-0.1959,-0.2028,-0.204,-0.2085,-0.2112,-0.2117,-0.2111,-0.2109,-0.2168,-0.2173,-0.2178,-0.2171,-0.2176,-0.2119,-0.2119,-0.2118,-0.2118,0,-0.1663,-0.1709,-0.1732,-0.1787,-0.1826,-0.1871,-0.1917,-0.1965,-0.2002,-0.203,-0.2096,-0.2116,-0.2149,-0.2168,-0.2163,-0.2211,-0.2193,-0.2177,-0.2137,-0.2191,-0.2181,-0.2184,-0.2125,-0.2123,-0.2122,-0.2121,0,0,-0.165,-0.1742,-0.1752,-0.1788,-0.1862,-0.1892,-0.1963,-0.2024,-0.2066,-0.2125,-0.2173,-0.2226,-0.2233,-0.2243,-0.2247,-0.226,-0.2296,-0.224,-0.2239,-0.2228,-0.2308,-0.2156,-0.2145,-0.2292,-0.2293,-0.2294,-0.2289,0,-0.1673,-0.1748,-0.1791,-0.1868,-0.1908,-0.1963,-0.2021,-0.2082,-0.2132,-0.2188,-0.2218,-0.2266,-0.2263,-0.2284,-0.23,-0.2298,-0.2308,-0.2298,-0.2263,-0.2262,-0.2114,-0.2145,-0.2297,-0.2291,-0.2292,-0.2292,-0.2293,0,-0.1682,-0.1734,-0.1815,-0.1903,-0.1927,-0.1982,-0.2067,-0.2123,-0.2202,-0.2241,-0.229,-0.2311,-0.2354,-0.2336,-0.2357,-0.2353,-0.2337,-0.2329,-0.2328,-0.216,-0.2116,-0.2225,-0.2298,-0.2298,-0.2297,-0.2297,-0.2297,0,-0.1636,-0.1742,-0.1805,-0.1839,-0.1949,-0.1999,-0.2056,-0.2142,-0.2186,-0.2272,-0.2307,-0.2357,-0.2382,-0.2384,-0.2371,-0.2372,-0.2372,-0.2366,-0.2214,-0.2203,-0.2311,-0.2305,-0.237,-0.237,-0.237,-0.237,-0.237,0,-0.1618,-0.1671,-0.1796,-0.183,-0.19,-0.1986,-0.2062,-0.2122,-0.221,-0.2244,-0.2325,-0.2343,-0.2396,-0.2399,-0.2384,-0.2296,-0.238,-0.2215,-0.2189,-0.2342,-0.2339,-0.2314,-0.2307,-0.237,-0.237,-0.237,-0.237,0,-0.1548,-0.1638,-0.1713,-0.1841,-0.1882,-0.1929,-0.205,-0.209,-0.2192,-0.2237,-0.2264,-0.2343,-0.234,-0.2364,-0.236,-0.2288,-0.2237,-0.2185,-0.2344,-0.2328,-0.2066,-0.2063,-0.2018,-0.2012,-0.2008,-0.2004,-0.2001,0,-0.1515,-0.1551,-0.1694,-0.1732,-0.1796,-0.1885,-0.1933,-0.2058,-0.2088,-0.2204,-0.2197,-0.2252,-0.2279,-0.2148,-0.2198,-0.2149,-0.2123,-0.2087,-0.2079,-0.2049,-0.2029,-0.2034,-0.2038,-0.1993,-0.1992,-0.1991,-0.199,0,-0.1437,-0.1506,-0.1564,-0.1644,-0.1711,-0.1771,-0.1849,-0.186,-0.1978,-0.2098,-0.2066,-0.2058,-0.2048,-0.2035,-0.2007,-0.1975,-0.2107,-0.2039,-0.2048,-0.204,-0.2019,-0.2004,-0.2014,-0.1974,-0.1976,-0.1978,-0.1978,0,-0.1372,-0.139,-0.1473,-0.1524,-0.1601,-0.1616,-0.1685,-0.171,-0.1759,-0.1888,-0.1869,-0.193,-0.2013,-0.1943,-0.1918,-0.1873,-0.185,-0.179,-0.1812,-0.1831,-0.1771,-0.1716,-0.1547,0,0,0,0,0,-0.1293,-0.1296,-0.1338,-0.1389,-0.1458,-0.1497,-0.1599,-0.167,-0.1791,-0.1713,-0.1785,-0.1765,-0.1732,-0.1771,-0.1684,-0.1842,-0.1862,-0.1734,-0.1807,-0.1885,-0.1903,-0.185,0,0,0,0,0,0,-0.1239,-0.1277,-0.129,-0.1254,-0.1258,-0.1315,-0.1371,-0.1462,-0.143,-0.1559,-0.1546,-0.1649,-0.1642,-0.1744,-0.1642,-0.1653,-0.1661,-0.1785,-0.178,-0.1874,-0.1891,-0.1906,-0.1857,0,0,0,0,0]},{"header":{"parameterUnit":"m.s-1","parameterCategory":2,"la1":30.2991,"la2":30.254,"lo1":-89.0895,"lo2":-89.0444,"dy":0.0017,"dx":0.0017,"nx":28,"ny":28,"refTime":"2025-08-09T21:00:00:Z","depth":"4","parameterNumber":3,"parameterNumberName":"V-component_of_CURRENTS"},"data":[0,0,0,0,0,0,0,0,0,0,0,0,0,0,0,0,0,0,0,0,0,0,0,0,0,0,0,0,0,0,0,0,0,0,0,0,0,0,0,0,0,0,0,0,0,0,0,0,0,0,0,0,0,0,0,0,0,0,-0.009,-0.0089,0,-0.0036,-0.0035,-0.0035,0.0009,0.0009,0.001,0.001,0.0104,0.0107,0.0109,0,0,0,0,0,0,0,0,0,0,0,0,0,-0.0111,-0.0111,-0.009,-0.0089,-0.0089,-0.0036,-0.0035,-0.0035,0.0009,0.0009,0.001,0.001,0.0104,0.0106,0.0109,0,0,0,0,0,0,0,0,0,0,0,0,0,-0.0082,-0.0111,-0.009,-0.0062,-0.0059,-0.0037,-0.0035,-0.0034,0.0009,0.0009,0.001,0.001,0.0103,0.0106,0.0109,0.0122,0,0,0.012,0.0121,0,0,0,0,0,0,0,0,-0.0084,-0.0081,-0.0067,-0.0064,-0.0061,-0.0022,-0.0008,0.0019,0.0009,-0.0015,0.001,0.001,0.0064,0.0071,0.0082,0.0126,0.0131,0.012,0.0122,0.0124,0.0125,0,0,0,0,0,0,0,-0.0086,-0.0083,-0.0066,-0.0066,-0.0063,-0.0038,-0.0034,-0.0003,0.0024,-0.0013,-0.001,-0.0007,0.0067,0.0079,0.0085,0.0132,0.012,0.0123,0.0125,0.0126,0.0205,0.0205,0,0,0,0,0,0,-0.01,-0.0085,-0.0068,-0.0065,-0.0074,-0.0038,-0.0033,-0.0033,0.0023,0.0031,-0.0008,-0.0005,0.0073,0.0081,0.0089,0.0111,0.0124,0.0127,0.0129,0.0205,0.0205,0.0205,0,0,0,0,0,0,-0.01,-0.0099,-0.007,-0.0075,-0.007,-0.0039,-0.0038,-0.0032,-0.0021,0.0026,0.0035,-0.0004,0.0074,0.0084,0.0115,0.0115,0.0128,0.0131,0.0205,0.0205,0.0205,0.0153,0,0,0,0,0,0,-0.0101,-0.0099,-0.0106,-0.0077,-0.0071,-0.0065,-0.0039,-0.0031,-0.0021,-0.0018,0.0033,0.0042,0.0075,0.011,0.0118,0.012,0.0134,0.0205,0.0205,0.0205,0.0154,0.0151,0.0148,0,0,0,0,0,-0.0102,-0.0115,-0.0106,-0.0104,-0.008,-0.0066,-0.006,-0.0035,-0.0022,-0.0022,0.0016,0.004,0.0117,0.0112,0.0122,0.0125,0.0205,0.0205,0.0205,0.0156,0.0152,0.0148,0,0,0,0,0,0,-0.0128,-0.0111,-0.0101,-0.0108,-0.0092,-0.0059,-0.0059,-0.004,-0.0011,-0.0007,0.0041,0.0052,0.008,0.0109,0.0103,0.0148,0.0165,0.0167,0.0124,0.0121,0.0118,0.0107,0.0137,0,0,0,0,0,-0.0138,-0.0143,-0.012,-0.0126,-0.0121,-0.0091,-0.0083,-0.0065,-0.0036,-0.0023,0.0012,0.0052,0.0088,0.0108,0.0141,0.0165,0.0196,0.0174,0.0171,0.0168,0.0166,0.0215,0.0216,0.0205,0.0205,0.0205,0,0,-0.015,-0.0142,-0.0144,-0.0132,-0.0117,-0.0115,-0.0084,-0.0078,-0.007,-0.0017,0.0003,0.0041,0.0091,0.0119,0.0134,0.0143,0.0185,0.0168,0.0165,0.0165,0.0215,0.0216,0.0217,0.0205,0.0205,0.0205,0,0,-0.018,-0.0169,-0.0184,-0.0175,-0.016,-0.0138,-0.014,-0.011,-0.0092,-0.0069,-0.0027,0.001,0.0059,0.0099,0.0125,0.0125,0.0165,0.0135,0.0114,0.016,0.0162,0.0163,0.0193,0.0197,0.0136,0.0136,0.0135,0,-0.0196,-0.021,-0.0186,-0.0197,-0.0193,-0.0153,-0.0164,-0.0139,-0.0102,-0.0084,-0.0072,0.0011,0.0051,0.0097,0.0098,0.0118,0.0145,0.0122,0.0156,0.0158,0.016,0.0191,0.0196,0.0133,0.0133,0.0134,0.0134,0,-0.0234,-0.0245,-0.0253,-0.0251,-0.0241,-0.0245,-0.021,-0.0194,-0.0165,-0.0134,-0.0089,-0.0031,0.0019,0.0039,0.0069,0.0108,0.0121,0.0143,0.0162,0.0158,0.019,0.0197,0.013,0.013,0.0131,0.0132,0,0,-0.0269,-0.0279,-0.0283,-0.0293,-0.0271,-0.0269,-0.0252,-0.0224,-0.0211,-0.0163,-0.0139,-0.0071,-0.0035,-0.0002,0.0045,0.0088,0.0126,0.0118,0.0122,0.0141,0.0219,0.0206,0.0213,0.0154,0.0156,0.0157,0.023,0,-0.0307,-0.0347,-0.0332,-0.0357,-0.0372,-0.033,-0.0319,-0.0284,-0.0242,-0.0208,-0.0134,-0.0095,-0.0051,-0.0028,0.0024,0.0104,0.0143,0.0103,0.0225,0.0229,0.0214,0.0221,0.016,0.0235,0.0237,0.0238,0.0239,0,-0.0348,-0.0369,-0.041,-0.0414,-0.0415,-0.0421,-0.0391,-0.0375,-0.0308,-0.0274,-0.0213,-0.0152,-0.0076,-0.0045,0.009,0.0063,0.0131,0.0191,0.0196,0.0209,0.023,0.0245,0.0252,0.0251,0.025,0.0249,0.0248,0,-0.0391,-0.0419,-0.0456,-0.046,-0.0457,-0.0462,-0.0453,-0.0401,-0.0386,-0.0316,-0.0294,-0.019,-0.0142,-0.0033,0.0095,0.0094,0.0237,0.0254,0.0306,0.0306,0.0317,0.0315,0.0339,0.0339,0.0339,0.0339,0.0339,0,-0.0434,-0.0463,-0.0486,-0.0508,-0.0544,-0.0517,-0.053,-0.0501,-0.0455,-0.0437,-0.0337,-0.0298,-0.0136,-0.0031,0.0083,0.0215,0.0231,0.0303,0.0328,0.0292,0.0287,0.0322,0.0319,0.0341,0.0341,0.034,0.034,0,-0.0475,-0.0491,-0.0538,-0.056,-0.0571,-0.0597,-0.0599,-0.0598,-0.0548,-0.0521,-0.0502,-0.0375,-0.0234,-0.0074,0.0106,0.019,0.0323,0.0363,0.0302,0.0322,0.0361,0.0355,0.0427,0.0427,0.0427,0.0428,0.0428,0,-0.0499,-0.0531,-0.0589,-0.0625,-0.0642,-0.0673,-0.069,-0.0655,-0.0645,-0.0565,-0.0552,-0.042,-0.0318,-0.0073,0.0091,0.0306,0.0333,0.0392,0.0388,0.0355,0.0372,0.0366,0.0359,0.0428,0.0428,0.0428,0.0428,0,-0.0542,-0.0568,-0.0608,-0.0687,-0.0728,-0.076,-0.0777,-0.0777,-0.072,-0.0684,-0.058,-0.0438,-0.0282,-0.0082,0.0086,0.0239,0.0353,0.0395,0.0396,0.0392,0.0357,0.0373,0.0366,0.0429,0.0429,0.0429,0.0429,0,-0.057,-0.0612,-0.0671,-0.0732,-0.0791,-0.0822,-0.0826,-0.0797,-0.0774,-0.0673,-0.0645,-0.0458,-0.0346,-0.0117,0.0037,0.019,0.0226,0.0266,0.0274,0.0275,0.0212,0.0145,0.0172,0,0,0,0,0,-0.0591,-0.064,-0.0708,-0.0772,-0.0829,-0.0856,-0.0869,-0.0854,-0.0805,-0.0739,-0.0683,-0.053,-0.0281,-0.0172,-0.0021,0.0029,0.0239,0.0208,0.0286,0.0433,0.0432,0.0383,0,0,0,0,0,0,-0.0606,-0.0677,-0.0711,-0.0785,-0.0832,-0.0882,-0.0889,-0.0859,-0.0805,-0.074,-0.0605,-0.0513,-0.0271,-0.0369,-0.0025,0.0022,0.0087,0.0332,0.0335,0.0434,0.0433,0.0432,0.0381,0,0,0,0,0]}]]